DW6199 Weather Reports


Display with metric or nautical units.
time (UTC)temp
F
wind
direction
speed
MPH
gust
MPH
rain 1hr
in
rain 24hr
in
rain mn
in
humidity
%
barometer
mb
20191212204540 36 68 0.0 3.0 0.00 0.00 0.00 49 1040.4
20191212203017 36 74 0.0 3.0 0.00 0.00 0.00 49 1040.4
20191212201536 37 74 1.0 2.0 0.00 0.00 0.00 47 1040.4
20191212200009 37 60 1.0 4.0 0.00 0.00 0.00 46 1040.5
20191212194512 37 98 1.0 4.0 0.00 0.00 0.00 46 1040.7
20191212193011 37 77 1.0 2.0 0.00 0.00 0.00 46 1040.8
20191212191532 37 85 0.0 5.0 0.00 0.00 0.00 50 1040.7
20191212190003 37 58 2.0 4.0 0.00 0.00 0.00 48 1040.9
20191212184505 37 57 1.0 2.0 0.00 0.00 0.00 50 1040.9
20191212183232 36 291 0.0 3.0 0.00 0.00 0.00 51 1040.9
20191212181818 36 67 0.0 2.0 0.00 0.00 0.00 48 1040.9
20191212180508 35 44 0.0 2.0 0.00 0.00 0.00 52 1041.4
20191212174919 35 299 0.0 3.0 0.00 0.00 0.00 50 1041.8
20191212173305 34 54 0.0 3.0 0.00 0.00 0.00 54 1042.1
20191212171744 34 69 2.0 4.0 0.00 0.00 0.00 54 1042.3
20191212170250 34 250 0.0 1.0 0.00 0.00 0.00 53 1042.6
20191212164802 33 153 0.0 5.0 0.00 0.00 0.00 53 1042.8
20191212163218 33 58 0.0 2.0 0.00 0.00 0.00 55 1043.1
20191212161621 32 89 0.0 3.0 0.00 0.00 0.00 55 1043.3
20191212160219 32 141 0.0 2.0 0.00 0.00 0.00 56 1043.3
20191212154630 31 271 0.0 2.0 0.00 0.00 0.00 56 1043.5
20191212153149 31 60 0.0 2.0 0.00 0.00 0.00 57 1043.4
20191212151611 30 106 0.0 3.0 0.00 0.00 0.00 59 1043.5
20191212150130 30 93 0.0 2.0 0.00 0.00 0.00 60 1043.4
20191212144643 29 84 0.0 3.0 0.00 0.00 0.00 62 1043.2
20191212143126 28 120 0.0 2.0 0.00 0.00 0.00 63 1042.9
20191212141611 28 137 0.0 2.0 0.00 0.00 0.00 65 1043.0
20191212140058 27 20 0.0 2.0 0.00 0.00 0.00 65 1042.8
20191212134530 26 110 0.0 3.0 0.00 0.00 0.00 67 1042.8
20191212133136 26 132 0.0 1.0 0.00 0.00 0.00 70 1042.7
20191212131539 25 132 0.0 2.0 0.00 0.00 0.00 71 1042.7
20191212130037 25 78 0.0 2.0 0.00 0.00 0.00 72 1042.3
20191212124552 24 94 0.0 1.0 0.00 0.00 0.00 73 1042.2
20191212123029 24 95 0.0 2.0 0.00 0.00 0.00 74 1042.0
20191212121549 24 123 0.0 0.0 0.00 0.00 0.00 75 1041.8
20191212120024 24 107 0.0 0.0 0.00 0.00 0.00 75 1041.7
20191212114541 25 108 0.0 1.0 0.00 0.00 0.00 74 1041.6
20191212113009 25 108 0.0 0.0 0.00 0.00 0.00 74 1041.5
20191212111514 25 107 0.0 1.0 0.00 0.00 0.00 73 1041.3
20191212110005 26 124 0.0 1.0 0.00 0.00 0.00 72 1041.2
20191212104505 26 78 0.0 2.0 0.00 0.00 0.00 72 1041.1
20191212103007 26 103 0.0 1.0 0.00 0.00 0.00 73 1040.8
20191212101813 26 108 0.0 2.0 0.00 0.00 0.00 73 1040.7
20191212100253 26 92 0.0 2.0 0.00 0.00 0.00 73 1040.4
20191212094848 26 77 0.0 3.0 0.00 0.00 0.00 75 1040.3
20191212093220 26 129 0.0 2.0 0.00 0.00 0.00 75 1040.2
20191212090244 26 148 0.0 1.0 0.00 0.00 0.00 76 1040.1
20191212084720 26 130 0.0 1.0 0.00 0.00 0.00 76 1039.9
20191212083116 26 129 0.0 0.0 0.00 0.00 0.00 76 1039.8
20191212081712 27 129 0.0 1.0 0.00 0.00 0.00 74 1039.5
20191212080214 27 129 0.0 1.0 0.00 0.00 0.00 73 1039.2
20191212074610 27 130 0.0 0.0 0.00 0.00 0.00 72 1039.5
20191212073130 28 129 0.0 1.0 0.00 0.00 0.00 70 1039.5
20191212071700 28 343 0.0 2.0 0.00 0.00 0.00 70 1039.2
20191212070124 28 18 0.0 2.0 0.00 0.00 0.00 72 1039.0
20191212064643 28 239 0.0 1.0 0.00 0.01 0.00 72 1039.0
20191212063132 28 186 0.0 0.0 0.00 0.01 0.00 73 1038.6
20191212061609 28 195 0.0 1.0 0.00 0.01 0.00 70 1038.5
20191212060130 29 194 0.0 1.0 0.00 0.01 0.00 69 1038.1
20191212054624 28 86 0.0 0.0 0.00 0.02 0.00 70 1037.9
20191212053119 29 169 0.0 1.0 0.00 0.02 0.00 69 1038.0
20191212051527 29 161 0.0 1.0 0.00 0.02 0.00 67 1038.0
20191212050118 30 27 0.0 1.0 0.00 0.02 0.00 64 1037.9
20191212044520 31 71 0.0 3.0 0.00 0.06 0.02 62 1037.7
20191212043121 30 277 1.0 7.0 0.00 0.06 0.02 63 1037.4
20191212041548 30 262 1.0 7.0 0.00 0.06 0.02 64 1037.3
20191212040025 31 118 0.0 1.0 0.00 0.06 0.02 62 1037.3
20191212034514 31 101 0.0 5.0 0.00 0.06 0.02 61 1036.9
20191212033036 31 250 0.0 8.0 0.00 0.06 0.02 60 1036.5
20191212031504 31 280 0.0 5.0 0.00 0.06 0.02 61 1036.3
20191212030020 31 266 1.0 4.0 0.00 0.06 0.02 61 1036.3
20191212024503 31 260 0.0 1.0 0.00 0.09 0.02 61 1036.3
20191212023417 31 108 0.0 2.0 0.00 0.09 0.02 59 1036.0
20191212022021 32 280 0.0 2.0 0.00 0.09 0.02 58 1035.8
20191212020313 32 105 0.0 4.0 0.00 0.09 0.02 57 1035.4
20191212014638 32 143 1.0 7.0 0.00 0.10 0.02 56 1035.6
20191212013215 32 262 1.0 7.0 0.00 0.10 0.02 57 1035.2
20191212011647 32 266 1.0 3.0 0.00 0.10 0.02 56 1035.1
20191212010128 32 124 0.0 1.0 0.00 0.10 0.02 55 1034.8
20191212004715 33 269 0.0 3.0 0.00 0.12 0.02 53 1034.5
20191212003128 34 107 1.0 5.0 0.00 0.12 0.02 52 1034.3
20191212001759 33 264 1.0 7.0 0.00 0.12 0.02 52 1034.0
20191212000158 33 304 0.0 2.0 0.00 0.12 0.02 53 1033.8
20191211234603 34 269 0.0 2.0 0.00 0.13 0.02 50 1033.5
20191211233116 34 5 1.0 5.0 0.00 0.13 0.02 50 1033.3
20191211231631 34 44 1.0 3.0 0.00 0.13 0.02 50 1032.9
20191211230139 34 235 0.0 2.0 0.00 0.13 0.02 50 1032.6
20191211224646 34 99 0.0 2.0 0.00 0.16 0.02 52 1032.5
20191211223054 34 266 0.0 1.0 0.00 0.16 0.02 55 1032.3
20191211221621 33 235 0.0 0.0 0.00 0.16 0.02 61 1032.0
20191211220106 34 235 0.0 0.0 0.00 0.16 0.02 56 1031.9
20191211214537 35 235 0.0 1.0 0.00 0.17 0.02 55 1031.9
20191211213109 36 235 0.0 5.0 0.00 0.17 0.02 53 1031.7
20191211211645 36 262 0.0 2.0 0.00 0.17 0.02 53 1031.4
20191211210055 37 245 1.0 5.0 0.00 0.17 0.02 52 1031.2